Left ArrowRight Arrow

Hourly Observations for May 5, 2024

Temp ( °F °C ) Dew Point ( °F °C ) Humidity (%) Winds ( mph kmh ) Pressure ( in mb ) Visibility ( mi km ) Precip ( " mm )
12:53 am 00:53 Clear 46 7.8 27 -2.8 47 47 SE 9 15 29.65 1004 10 16 0.00 0.00
1:53 am 01:53 Clear 46 7.8 27 -2.8 47 47 undefined N/A 29.61 1003 10 16 0.00 0.00
2:53 am 02:53 Clear 45 7.2 26 -3.3 47 47 undefined N/A 29.58 1002 10 16 0.00 0.00
3:53 am 03:53 Clear 46 7.8 26 -3.3 45 45 SSE 7 11 29.55 1001 10 16 0.00 0.00
4:53 am 04:53 Clear 43 6.1 28 -2.2 55 55 SE 8 13 29.55 1001 10 16 0.00 0.00
5:53 am 05:53 Sunny 41 5 29 -1.7 62 62 ESE 10 17 29.54 1000 10 16 0.00 0.00
6:53 am 06:53 Sunny 46 7.8 32 0 58 58 SSE 18 30 29.51 999 10 16 0.00 0.00
7:53 am 07:53 Mostly Sunny 45 7.2 33 0.6 63 63 SE 18 30 29.51 999 10 16 0.00 0.00
8:53 am 08:53 Partly Cloudy 50 10 34 1.1 54 54 SE 21 33 29.49 999 10 16 0.00 0.00
9:53 am 09:53 Sunny 55 12.8 37 2.8 51 51 SE 24 39 29.48 998 10 16 0.00 0.00
10:53 am 10:53 Sunny 57 13.9 39 3.9 51 51 SSE 22 35 29.47 998 10 16 0.00 0.00
11:53 am 11:53 Sunny 61 16.1 39 3.9 44 44 S 18 30 29.44 997 10 16 0.00 0.00
12:53 pm 12:53 Sunny 71 21.7 37 2.8 29 29 SSE 23 37 29.37 995 10 16 0.00 0.00
1:53 pm 13:53 Mostly Cloudy 69 20.6 35 1.7 28 28 S 23 37 29.37 995 10 16 0.00 0.00
2:53 pm 14:53 Partly Cloudy 72 22.2 33 0.6 24 24 S 22 35 29.33 993 10 16 0.00 0.00
3:53 pm 15:53 Mostly Cloudy 71 21.7 30 -1.1 22 22 S 35 56 29.32 993 10 16 0.00 0.00
4:53 pm 16:53 Mostly Cloudy 70 21.1 33 0.6 25 25 S 16 26 29.31 993 10 16 0.01 0.13
5:53 pm 17:53 Mostly Sunny 69 20.6 31 -0.6 24 24 S 30 48 29.32 993 10 16 0.00 0.00
6:53 pm 18:53 Sunny 67 19.4 32 0 27 27 SSW 16 26 29.31 993 10 16 0.00 0.00
7:53 pm 19:53 Sunny 63 17.2 34 1.1 34 34 SSE 8 13 29.32 993 10 16 0.00 0.00
8:53 pm 20:53 Cloudy 53 11.7 40 4.4 61 61 NW 15 24 29.37 995 10 16 0.00 0.00
9:53 pm 21:53 Mostly Cloudy 50 10 39 3.9 66 66 NNW 13 20 29.39 995 10 16 0.00 0.00
10:53 pm 22:53 Mostly Cloudy 48 8.9 39 3.9 71 71 NNW 18 30 29.39 995 10 16 0.01 0.13
11:53 pm 23:53 Cloudy with Light Rain 50 10 40 4.4 68 68 NNW 16 26 29.36 994 10 16 0.01 0.13

Powered by Vaisala Xweather